Pompano Beach, FL

8:19 PM EDT on October 15, 2019 (GMT -0400)
Pompano Beach

Weather History for KPMP - September, 2019

Change the Weather History Date:

Sunday, September 22, 2019

  Actual Average Record
Temperature  
Mean Temperature 84 °F -  
Max Temperature 88 °F 90 °F 94 °F (1993)
Min Temperature 81 °F 73 °F 43 °F (2013)
Cooling Degree Days 20    
Growing Degree Days 34 (Base 50)    
Moisture  
Dew Point 69 °F    
Average Humidity 64    
Maximum Humidity 72    
Minimum Humidity 55    
Precipitation  
Precipitation 0.00 in - - ()
Sea Level Pressure  
Sea Level Pressure 30.02 in    
Wind  
Wind Speed 16 mph ()    
Max Wind Speed 22 mph    
Max Gust Speed 30 mph    
Visibility 10.0 miles    
Events      
Averages and records for this station are not official NWS values.
T = Trace of Precipitation, MM = Missing Value Source: Averaged Metar Reports

Daily Weather History Graph

Daily Weather History Graph

Search for Another Location

Airport or City:

Astronomy

Sep. 22, 2019 Rise Set
Actual Time 7:08 AM EDT 7:17 PM EDT
Civil Twilight 6:45 AM EDT 7:40 PM EDT
Nautical Twilight 6:18 AM EDT 8:06 PM EDT
Astronomical Twilight 5:51 AM EDT 8:33 PM EDT
Moon 12:30 AM EDT (9/22) 2:35 PM EDT (9/22)
Length of Visible Light 12h 54m
Length of Day
12h 08m
Last Quarter, 44% of the Moon is Illuminated
Sep 22
Last Quarter
Sep 28
New
Oct 5
First Quarter
Oct 13
Full
Oct 21
Last Quarter

Hourly Weather History & Observations

Time (EDT) Temp. Heat Index Dew Point Humidity Pressure Visibility Wind Dir Wind Speed Gust Speed Precip Events Conditions
12:53 AM 81.0 °F 84.9 °F 71.1 °F 72% 30.04 in 10.0 mi ENE 16.1 mph 27.6 mph N/A   Mostly Cloudy
1:53 AM 81.0 °F 84.1 °F 69.1 °F 67% 30.03 in 10.0 mi ENE 18.4 mph 25.3 mph N/A   Partly Cloudy
2:53 AM 81.0 °F 84.1 °F 69.1 °F 67% 30.02 in 10.0 mi ENE 18.4 mph 25.3 mph N/A   Partly Cloudy
3:53 AM 81.0 °F 84.1 °F 69.1 °F 67% 30.01 in 10.0 mi NE 18.4 mph 26.5 mph N/A   Mostly Cloudy
4:53 AM 81.0 °F 83.3 °F 66.9 °F 62% 30.01 in 10.0 mi ENE 17.3 mph 24.2 mph N/A   Mostly Cloudy
5:53 AM 81.0 °F 83.8 °F 68.0 °F 65% 30.01 in 10.0 mi East 19.6 mph 29.9 mph N/A   Mostly Cloudy
6:37 AM 81.0 °F 83.8 °F 68.0 °F 65% 30.00 in 10.0 mi ENE 12.7 mph 27.6 mph N/A   Mostly Cloudy
6:53 AM 81.0 °F 84.1 °F 69.1 °F 67% 30.00 in 10.0 mi East 15.0 mph 25.3 mph N/A   Mostly Cloudy
7:53 AM 82.0 °F 85.5 °F 69.1 °F 65% 30.02 in 10.0 mi ENE 17.3 mph - N/A   Mostly Cloudy
8:53 AM 82.0 °F 85.5 °F 69.1 °F 65% 30.03 in 10.0 mi ENE 17.3 mph 27.6 mph N/A   Mostly Cloudy
9:53 AM 84.0 °F 87.0 °F 68.0 °F 58% 30.06 in 10.0 mi ENE 17.3 mph 28.8 mph N/A   Mostly Cloudy
10:53 AM 84.0 °F 88.4 °F 70.0 °F 63% 30.06 in 10.0 mi ENE 18.4 mph 24.2 mph N/A   Mostly Cloudy
11:53 AM 86.0 °F 90.7 °F 70.0 °F 59% 30.06 in 10.0 mi ENE 17.3 mph 28.8 mph N/A   Mostly Cloudy
12:53 PM 84.9 °F 90.1 °F 71.1 °F 63% 30.04 in 10.0 mi ENE 19.6 mph 26.5 mph N/A   Mostly Cloudy
1:53 PM 88.0 °F 92.9 °F 70.0 °F 55% 30.03 in 10.0 mi ENE 17.3 mph 26.5 mph N/A   Mostly Cloudy
2:53 PM 86.0 °F 90.7 °F 70.0 °F 59% 30.01 in 10.0 mi ENE 19.6 mph 26.5 mph N/A   Scattered Clouds
3:53 PM 86.0 °F 90.7 °F 70.0 °F 59% 30.00 in 10.0 mi NE 17.3 mph 27.6 mph N/A   Scattered Clouds
4:53 PM 84.9 °F 89.4 °F 70.0 °F 61% 30.00 in 10.0 mi NE 19.6 mph 27.6 mph N/A   Scattered Clouds
5:53 PM 84.9 °F 89.4 °F 70.0 °F 61% 29.99 in 10.0 mi NE 18.4 mph 26.5 mph N/A   Mostly Cloudy
6:53 PM 82.9 °F 86.5 °F 69.1 °F 63% 29.99 in 10.0 mi NE 17.3 mph - N/A   Scattered Clouds
7:53 PM 82.0 °F 85.9 °F 70.0 °F 67% 29.99 in 10.0 mi NE 21.9 mph 27.6 mph N/A   Scattered Clouds
8:53 PM 82.0 °F 85.9 °F 70.0 °F 67% 30.01 in 10.0 mi ENE 16.1 mph 23.0 mph N/A   Overcast
9:53 PM 82.0 °F 85.9 °F 70.0 °F 67% 30.02 in 10.0 mi NE 19.6 mph 26.5 mph N/A   Overcast
10:53 PM 81.0 °F 84.1 °F 69.1 °F 67% 30.03 in 10.0 mi ENE 15.0 mph - N/A   Mostly Cloudy
11:53 PM 81.0 °F 83.3 °F 66.9 °F 62% 30.02 in 10.0 mi NE 13.8 mph - N/A   Scattered Clouds